Time,TemperatureF,DewpointF,PressureIn,WindDirection,WindDirectionDegrees,WindSpeedMPH,WindSpeedGustMPH,Humidity,HourlyPrecipIn,Conditions,Clouds,dailyrainin,SolarRadiationWatts/m^2,SoftwareType,DateUTC
2013-01-21 00:02:00,29.0,17.0,30.28,NNE,32,0.0,1.0,61,-99.99,,,-99.99,0.000000,,2013-01-21 08:02:00,
2013-01-21 00:13:00,29.0,18.0,30.25,NNE,25,0.0,1.0,62,-99.99,,,-99.99,0.000000,,2013-01-21 08:13:00,
2013-01-21 00:22:00,29.0,17.0,30.25,NE,37,0.0,1.0,61,-99.99,,,-99.99,0.000000,,2013-01-21 08:22:00,
2013-01-21 00:32:00,29.0,17.0,30.25,NNE,28,0.0,1.0,59,-99.99,,,-99.99,0.000000,,2013-01-21 08:32:00,
2013-01-21 00:42:00,29.0,16.0,30.25,NNE,25,0.0,1.0,57,-99.99,,,-99.99,0.000000,,2013-01-21 08:42:00,
2013-01-21 00:52:00,29.0,15.0,30.25,NNE,23,0.0,1.0,56,-99.99,,,-99.99,0.000000,,2013-01-21 08:52:00,
2013-01-21 01:02:00,29.0,16.0,30.25,NE,35,0.0,1.0,59,-99.99,,,-99.99,0.000000,,2013-01-21 09:02:00,
2013-01-21 01:12:00,29.0,17.0,30.25,NE,35,0.0,1.0,60,-99.99,,,-99.99,0.000000,,2013-01-21 09:12:00,
2013-01-21 01:22:00,29.0,17.0,30.25,NE,42,0.0,1.0,60,-99.99,,,-99.99,0.000000,,2013-01-21 09:22:00,
2013-01-21 01:32:00,29.0,18.0,30.25,NE,36,0.0,1.0,62,-99.99,,,-99.99,0.000000,,2013-01-21 09:32:00,
2013-01-21 01:42:00,29.0,16.0,30.25,NE,34,0.0,1.0,58,-99.99,,,-99.99,0.000000,,2013-01-21 09:42:00,
2013-01-21 01:52:00,30.0,17.0,30.25,NE,37,1.0,1.0,58,-99.99,,,-99.99,0.000000,,2013-01-21 09:52:00,
2013-01-21 02:02:00,30.0,17.0,30.25,NE,37,1.0,1.0,58,-99.99,,,-99.99,0.000000,,2013-01-21 10:02:00,
2013-01-21 02:22:00,31.0,17.0,30.25,NE,36,1.0,1.0,55,-99.99,,,-99.99,0.000000,,2013-01-21 10:22:00,
2013-01-21 02:42:00,32.0,17.0,30.25,NE,39,1.0,2.0,52,-99.99,,,-99.99,0.000000,,2013-01-21 10:42:00,
2013-01-21 02:52:00,32.0,17.0,30.25,NE,37,1.0,1.0,53,-99.99,,,-99.99,0.000000,,2013-01-21 10:52:00,
2013-01-21 03:02:00,32.0,16.0,30.25,NNE,33,0.0,1.0,52,-99.99,,,-99.99,0.000000,,2013-01-21 11:02:00,
2013-01-21 03:12:00,31.0,17.0,30.25,NE,37,0.0,1.0,54,-99.99,,,-99.99,0.000000,,2013-01-21 11:12:00,
2013-01-21 03:22:00,30.0,18.0,30.22,NE,36,0.0,1.0,59,-99.99,,,-99.99,0.000000,,2013-01-21 11:22:00,
2013-01-21 03:32:00,30.0,16.0,30.22,NNE,23,0.0,1.0,56,-99.99,,,-99.99,0.000000,,2013-01-21 11:32:00,
2013-01-21 04:02:00,29.0,16.0,30.22,NNE,19,0.0,1.0,56,-99.99,,,-99.99,0.000000,,2013-01-21 12:02:00,
2013-01-21 04:12:00,29.0,15.0,30.22,NE,36,0.0,1.0,56,-99.99,,,-99.99,0.000000,,2013-01-21 12:12:00,
2013-01-21 04:22:00,29.0,15.0,30.22,NE,36,0.0,1.0,56,-99.99,,,-99.99,0.000000,,2013-01-21 12:22:00,
2013-01-21 04:32:00,29.0,16.0,30.22,NNE,28,0.0,1.0,57,-99.99,,,-99.99,0.000000,,2013-01-21 12:32:00,
2013-01-21 04:52:00,29.0,15.0,30.22,NNE,28,0.0,1.0,56,-99.99,,,-99.99,0.000000,,2013-01-21 12:52:00,
2013-01-21 05:02:00,29.0,16.0,30.22,NNE,24,0.0,1.0,59,-99.99,,,-99.99,0.000000,,2013-01-21 13:02:00,
2013-01-21 09:12:00,33.0,20.0,30.25,NE,53,1.0,2.0,59,-99.99,,,-99.99,30.000000,,2013-01-21 17:12:00,
2013-01-21 09:22:00,34.0,20.0,30.25,NE,54,1.0,1.0,57,-99.99,,,-99.99,30.000000,,2013-01-21 17:22:00,
2013-01-21 09:33:00,34.0,21.0,30.25,NE,53,1.0,1.0,57,-99.99,,,-99.99,30.000000,,2013-01-21 17:33:00,
2013-01-21 09:42:00,35.0,21.0,30.25,NE,56,1.0,1.0,56,-99.99,,,-99.99,30.000000,,2013-01-21 17:42:00,
2013-01-21 09:52:00,37.0,22.0,30.28,ENE,71,0.0,1.0,55,-99.99,,,-99.99,30.000000,,2013-01-21 17:52:00,
2013-01-21 10:02:00,39.0,23.0,30.28,NE,55,1.0,1.0,51,-99.99,,,-99.99,30.000000,,2013-01-21 18:02:00,
2013-01-21 10:22:00,41.0,23.0,30.28,ENE,67,0.0,1.0,49,-99.99,,,-99.99,40.000000,,2013-01-21 18:22:00,
2013-01-21 10:33:00,42.0,23.0,30.28,ENE,69,0.0,1.0,48,-99.99,,,-99.99,40.000000,,2013-01-21 18:33:00,
2013-01-21 10:52:00,43.0,24.0,30.28,East,88,0.0,1.0,46,-99.99,,,-99.99,40.000000,,2013-01-21 18:52:00,
2013-01-21 11:02:00,44.0,23.0,30.28,East,98,0.0,1.0,44,-99.99,,,-99.99,40.000000,,2013-01-21 19:02:00,
2013-01-21 11:12:00,46.0,22.0,30.28,SE,131,0.0,1.0,38,-99.99,,,-99.99,40.000000,,2013-01-21 19:12:00,
2013-01-21 11:22:00,47.0,21.0,30.28,ESE,120,0.0,1.0,36,-99.99,,,-99.99,190.000000,,2013-01-21 19:22:00,
2013-01-21 11:32:00,50.0,20.0,30.28,East,84,0.0,1.0,30,-99.99,,,-99.99,410.000000,,2013-01-21 19:32:00,
2013-01-21 11:42:00,52.0,17.0,30.28,SE,141,1.0,3.0,25,-99.99,,,-99.99,170.000000,,2013-01-21 19:42:00,
2013-01-21 11:52:00,54.0,10.0,30.28,SSW,193,1.0,1.0,17,-99.99,,,-99.99,100.000000,,2013-01-21 19:52:00,
2013-01-21 12:02:00,56.0,7.0,30.28,South,181,1.0,3.0,14,-99.99,,,-99.99,400.000000,,2013-01-21 20:02:00,
2013-01-21 12:12:00,56.0,9.0,30.28,SSW,199,1.0,2.0,15,-99.99,,,-99.99,720.000000,,2013-01-21 20:12:00,
2013-01-21 12:22:00,57.0,5.0,30.28,NNE,13,1.0,2.0,12,-99.99,,,-99.99,720.000000,,2013-01-21 20:22:00,
2013-01-21 12:32:00,57.0,5.0,30.28,North,1,1.0,2.0,12,-99.99,,,-99.99,720.000000,,2013-01-21 20:32:00,
2013-01-21 12:42:00,58.0,5.0,30.28,South,170,1.0,2.0,12,-99.99,,,-99.99,720.000000,,2013-01-21 20:42:00,
2013-01-21 12:52:00,58.0,5.0,30.25,WSW,242,1.0,2.0,12,-99.99,,,-99.99,720.000000,,2013-01-21 20:52:00,
2013-01-21 13:02:00,58.0,8.0,30.25,NW,314,0.0,1.0,13,-99.99,,,-99.99,710.000000,,2013-01-21 21:02:00,
2013-01-21 13:12:00,58.0,6.0,30.25,SW,226,1.0,2.0,12,-99.99,,,-99.99,710.000000,,2013-01-21 21:12:00,
2013-01-21 13:22:00,58.0,6.0,30.25,West,278,1.0,2.0,12,-99.99,,,-99.99,700.000000,,2013-01-21 21:22:00,
2013-01-21 13:32:00,58.0,7.0,30.25,NNW,329,1.0,1.0,13,-99.99,,,-99.99,690.000000,,2013-01-21 21:32:00,
2013-01-21 13:43:00,58.0,6.0,30.25,SSE,168,1.0,2.0,12,-99.99,,,-99.99,670.000000,,2013-01-21 21:43:00,
2013-01-21 13:53:00,58.0,9.0,30.25,SSW,206,1.0,2.0,14,-99.99,,,-99.99,660.000000,,2013-01-21 21:53:00,
2013-01-21 14:02:00,57.0,5.0,30.25,SSE,154,1.0,2.0,12,-99.99,,,-99.99,640.000000,,2013-01-21 22:02:00,
2013-01-21 14:12:00,57.0,7.0,30.25,SSW,195,1.0,2.0,13,-99.99,,,-99.99,610.000000,,2013-01-21 22:12:00,
2013-01-21 14:22:00,57.0,5.0,30.25,South,176,1.0,2.0,12,-99.99,,,-99.99,590.000000,,2013-01-21 22:22:00,
2013-01-21 14:33:00,57.0,7.0,30.25,South,178,1.0,2.0,13,-99.99,,,-99.99,40.000000,,2013-01-21 22:33:00,
2013-01-21 14:42:00,57.0,7.0,30.25,South,178,1.0,2.0,13,-99.99,,,-99.99,40.000000,,2013-01-21 22:42:00,
2013-01-21 14:52:00,56.0,8.0,30.25,South,172,1.0,3.0,14,-99.99,,,-99.99,40.000000,,2013-01-21 22:52:00,
2013-01-21 15:02:00,56.0,8.0,-100.00,South,172,1.0,3.0,14,-99.99,,,-99.99,40.000000,,2013-01-21 23:02:00,
2013-01-21 15:12:00,56.0,9.0,30.25,South,179,1.0,2.0,15,-99.99,,,-99.99,60.000000,,2013-01-21 23:12:00,
2013-01-21 15:22:00,55.0,11.0,30.25,West,264,0.0,2.0,17,-99.99,,,-99.99,300.000000,,2013-01-21 23:22:00,
2013-01-21 15:33:00,54.0,15.0,30.25,NE,45,0.0,1.0,21,-99.99,,,-99.99,30.000000,,2013-01-21 23:33:00,
2013-01-21 15:52:00,52.0,15.0,30.25,NNE,22,1.0,1.0,22,-99.99,,,-99.99,30.000000,,2013-01-21 23:52:00,
2013-01-21 16:02:00,50.0,19.0,30.25,East,89,0.0,1.0,29,-99.99,,,-99.99,30.000000,,2013-01-22 00:02:00,
2013-01-21 16:12:00,49.0,20.0,30.25,ENE,65,0.0,1.0,31,-99.99,,,-99.99,40.000000,,2013-01-22 00:12:00,
2013-01-21 16:22:00,47.0,20.0,30.25,NE,54,0.0,1.0,34,-99.99,,,-99.99,20.000000,,2013-01-22 00:22:00,
2013-01-21 16:32:00,44.0,22.0,30.25,ENE,69,0.0,1.0,40,-99.99,,,-99.99,20.000000,,2013-01-22 00:32:00,
2013-01-21 16:53:00,43.0,22.0,30.25,ENE,62,0.0,1.0,43,-99.99,,,-99.99,20.000000,,2013-01-22 00:53:00,
2013-01-21 17:02:00,42.0,22.0,30.25,ENE,64,0.0,1.0,45,-99.99,,,-99.99,10.000000,,2013-01-22 01:02:00,
2013-01-21 17:22:00,41.0,22.0,30.25,NE,56,0.0,1.0,46,-99.99,,,-99.99,10.000000,,2013-01-22 01:22:00,
2013-01-21 17:32:00,40.0,21.0,30.25,ENE,58,0.0,1.0,46,-99.99,,,-99.99,0.000000,,2013-01-22 01:32:00,
2013-01-21 17:42:00,40.0,21.0,30.25,NE,54,0.0,1.0,48,-99.99,,,-99.99,0.000000,,2013-01-22 01:42:00,
2013-01-21 17:52:00,39.0,21.0,30.25,NE,52,0.0,1.0,49,-99.99,,,-99.99,0.000000,,2013-01-22 01:52:00,
2013-01-21 18:02:00,38.0,23.0,30.25,NE,49,0.0,1.0,54,-99.99,,,-99.99,0.000000,,2013-01-22 02:02:00,
2013-01-21 18:12:00,38.0,23.0,30.25,NE,39,0.0,1.0,56,-99.99,,,-99.99,0.000000,,2013-01-22 02:12:00,
2013-01-21 18:22:00,37.0,22.0,30.25,NE,37,0.0,1.0,54,-99.99,,,-99.99,0.000000,,2013-01-22 02:22:00,
2013-01-21 18:32:00,36.0,22.0,30.25,NE,45,0.0,1.0,56,-99.99,,,-99.99,0.000000,,2013-01-22 02:32:00,
2013-01-21 19:12:00,35.0,21.0,30.25,NNE,32,0.0,1.0,56,-99.99,,,-99.99,0.000000,,2013-01-22 03:12:00,
2013-01-21 19:32:00,34.0,20.0,30.25,NNE,25,0.0,1.0,57,-99.99,,,-99.99,0.000000,,2013-01-22 03:32:00,
2013-01-21 19:42:00,33.0,20.0,30.25,NNE,30,0.0,1.0,58,-99.99,,,-99.99,0.000000,,2013-01-22 03:42:00,
2013-01-21 19:52:00,33.0,19.0,30.25,NE,38,0.0,1.0,56,-99.99,,,-99.99,0.000000,,2013-01-22 03:52:00,
2013-01-21 20:02:00,33.0,20.0,30.25,NE,45,0.0,1.0,59,-99.99,,,-99.99,0.000000,,2013-01-22 04:02:00,
2013-01-21 20:42:00,32.0,19.0,30.25,NNE,24,0.0,1.0,58,-99.99,,,-99.99,0.000000,,2013-01-22 04:42:00,
2013-01-21 20:52:00,32.0,19.0,30.28,NE,41,0.0,1.0,59,-99.99,,,-99.99,0.000000,,2013-01-22 04:52:00,
2013-01-21 21:03:00,32.0,19.0,30.28,NE,41,0.0,1.0,59,-99.99,,,-99.99,0.000000,,2013-01-22 05:03:00,
2013-01-21 21:12:00,32.0,19.0,30.28,NNE,12,0.0,0.0,58,-99.99,,,-99.99,0.000000,,2013-01-22 05:12:00,
2013-01-21 21:22:00,32.0,19.0,30.28,NNE,27,0.0,0.0,59,-99.99,,,-99.99,0.000000,,2013-01-22 05:22:00,
2013-01-21 21:32:00,32.0,19.0,30.28,NNE,12,0.0,0.0,60,-99.99,,,-99.99,0.000000,,2013-01-22 05:32:00,
2013-01-21 21:42:00,31.0,18.0,30.28,NNE,14,0.0,0.0,58,-99.99,,,-99.99,0.000000,,2013-01-22 05:42:00,
2013-01-21 21:52:00,31.0,19.0,30.28,NNE,17,0.0,1.0,60,-99.99,,,-99.99,0.000000,,2013-01-22 05:52:00,
2013-01-21 22:02:00,31.0,19.0,30.28,NNE,20,0.0,0.0,61,-99.99,,,-99.99,0.000000,,2013-01-22 06:02:00,
2013-01-21 22:22:00,31.0,18.0,30.28,NNE,19,0.0,0.0,60,-99.99,,,-99.99,0.000000,,2013-01-22 06:22:00,
2013-01-21 22:32:00,30.0,19.0,30.28,NNE,22,0.0,0.0,61,-99.99,,,-99.99,0.000000,,2013-01-22 06:32:00,
2013-01-21 22:42:00,31.0,18.0,30.28,NNE,27,0.0,1.0,60,-99.99,,,-99.99,0.000000,,2013-01-22 06:42:00,
2013-01-21 22:52:00,30.0,18.0,30.28,NNE,15,0.0,0.0,60,-99.99,,,-99.99,0.000000,,2013-01-22 06:52:00,
2013-01-21 23:02:00,30.0,18.0,30.28,NNE,15,0.0,0.0,60,-99.99,,,-99.99,0.000000,,2013-01-22 07:02:00,
2013-01-21 23:11:00,30.0,18.0,30.28,NNE,22,0.0,0.0,61,-99.99,,,-99.99,0.000000,,2013-01-22 07:11:00,
2013-01-21 23:22:00,30.0,18.0,30.28,NNE,22,0.0,0.0,61,-99.99,,,-99.99,0.000000,,2013-01-22 07:22:00,
2013-01-21 23:32:00,30.0,18.0,30.28,NNE,16,0.0,0.0,60,-99.99,,,-99.99,0.000000,,2013-01-22 07:32:00,